W9PVR-13 Weather Reports


Display with metric or nautical units.
time (UTC)temp
F
wind
direction
speed
MPH
gust
MPH
rain 1hr
in
rain 24hr
in
rain mn
in
humidity
%
barometer
mb
20260902201016 0 201 2.0 2.0 0.00 0.00 0.00 71 976.2
20260902200516 0 198 1.0 1.0 0.00 0.00 0.00 72 976.2
20260902200016 0 199 0.0 0.0 0.00 0.00 0.00 71 975.9
20260902195515 0 198 0.0 0.0 0.00 0.00 0.00 71 975.7
20260902195015 0 199 1.0 0.0 0.00 0.00 0.00 74 975.7
20260902194514 0 199 1.0 1.0 0.00 0.00 0.00 76 975.8
20260902194014 0 198 0.0 1.0 0.00 0.00 0.00 75 976.2
20260902193514 0 198 0.0 0.0 0.00 0.00 0.00 76 976.2
20260902193013 0 198 0.0 1.0 0.00 0.00 0.00 77 976.1
20260902192513 0 198 1.0 1.0 0.00 0.00 0.00 76 976.2
20260902192013 0 198 1.0 1.0 0.00 0.00 0.00 76 976.3
20260902191512 0 198 0.0 0.0 0.00 0.00 0.00 76 976.3
20260902191011 0 198 1.0 1.0 0.00 0.00 0.00 75 976.2
20260902190511 0 198 1.0 1.0 0.00 0.00 0.00 74 976.2
20260902190010 0 198 0.0 0.0 0.00 0.00 0.00 74 976.4
20260902185510 0 198 2.0 2.0 0.00 0.00 0.00 74 976.1
20260902185010 0 198 0.0 0.0 0.00 0.00 0.00 74 976.1
20260902184509 0 198 1.0 1.0 0.00 0.00 0.00 74 976.0
20260902184009 0 198 1.0 1.0 0.00 0.00 0.00 73 976.2
20260902183509 0 198 1.0 1.0 0.00 0.00 0.00 72 976.0
20260902183009 0 198 1.0 1.0 0.00 0.00 0.00 72 976.0
20260902182508 0 198 1.0 1.0 0.00 0.00 0.00 71 975.9
20260902182007 0 198 1.0 1.0 0.00 0.00 0.00 71 976.1
20260902181507 0 198 1.0 1.0 0.00 0.00 0.00 73 975.9
20260902181006 0 198 1.0 1.0 0.00 0.00 0.00 70 976.1
20260902180506 0 198 0.0 0.0 0.00 0.00 0.00 72 976.0
20260902180007 0 198 0.0 0.0 0.00 0.00 0.00 72 976.2
20260902175505 0 198 1.0 1.0 0.00 0.00 0.00 71 976.0
20260902175005 0 198 1.0 1.0 0.00 0.00 0.00 70 976.1
20260902174504 0 198 1.0 2.0 0.00 0.00 0.00 71 976.4
20260902174004 0 198 2.0 2.0 0.00 0.00 0.00 68 976.4
20260902173504 0 160 2.0 2.0 0.00 0.00 0.00 69 976.4
20260902173003 0 193 1.0 2.0 0.00 0.00 0.00 69 976.5
20260902172503 0 193 1.0 1.0 0.00 0.00 0.00 73 976.4
20260902172002 0 161 1.0 1.0 0.00 0.00 0.00 71 976.3
20260902171502 0 160 1.0 1.0 0.00 0.00 0.00 74 976.2
20260902171001 0 161 1.0 1.0 0.00 0.00 0.00 71 976.4
20260902170501 0 161 0.0 1.0 0.00 0.00 0.00 72 976.8
20260902170001 0 161 1.0 1.0 0.00 0.00 0.00 73 976.5
20260902165500 0 160 0.0 0.0 0.00 0.00 0.00 70 976.7
20260902165000 0 161 1.0 1.0 0.00 0.00 0.00 72 976.7
20260902164459 0 161 0.0 0.0 0.00 0.00 0.00 73 977.0
20260902163959 0 161 1.0 1.0 0.00 0.00 0.00 73 976.8
20260902163459 0 151 2.0 2.0 0.00 0.00 0.00 71 977.0
20260902162958 0 140 1.0 1.0 0.00 0.00 0.00 72 976.7
20260902162458 0 140 1.0 1.0 0.00 0.00 0.00 75 976.6
20260902161958 0 140 0.0 0.0 0.00 0.00 0.00 75 976.7
20260902161457 0 140 1.0 1.0 0.00 0.00 0.00 77 976.7
20260902160957 0 138 1.0 1.0 0.00 0.00 0.00 75 976.8
20260902160457 0 138 0.0 0.0 0.00 0.00 0.00 75 976.7
20260902155956 0 138 0.0 0.0 0.00 0.00 0.00 76 976.5
20260902155456 0 138 1.0 1.0 0.00 0.00 0.00 77 976.5
20260902154956 0 137 1.0 1.0 0.00 0.00 0.00 76 976.6
20260902154455 0 137 0.0 0.0 0.00 0.00 0.00 75 976.6
20260902153955 0 137 0.0 0.0 0.00 0.00 0.00 76 976.4
20260902153454 0 137 0.0 0.0 0.00 0.00 0.00 75 976.5
20260902152954 0 138 0.0 0.0 0.00 0.00 0.00 74 976.7
20260902152453 0 138 0.0 0.0 0.00 0.00 0.00 74 976.8
20260902151953 0 137 0.0 0.0 0.00 0.00 0.00 74 976.7
20260902151453 0 137 0.0 0.0 0.00 0.00 0.00 75 976.8
20260902150952 0 137 0.0 0.0 0.00 0.00 0.00 75 976.6
20260902150452 0 137 1.0 1.0 0.00 0.00 0.00 75 976.6
20260902145952 0 137 1.0 1.0 0.00 0.00 0.00 76 976.7
20260902145451 0 138 2.0 2.0 0.00 0.00 0.00 74 976.8
20260902144951 0 138 0.0 0.0 0.00 0.00 0.00 75 976.6
20260902144451 0 138 1.0 1.0 0.00 0.00 0.00 73 976.7
20260902143950 0 137 0.0 0.0 0.00 0.00 0.00 75 976.6
20260902143450 0 138 0.0 0.0 0.00 0.00 0.00 75 976.7
20260902142950 0 139 0.0 0.0 0.00 0.00 0.00 78 976.7
20260902142449 0 138 1.0 1.0 0.00 0.00 0.00 77 976.5
20260902141949 0 138 1.0 1.0 0.00 0.00 0.00 76 976.5
20260902141448 0 138 0.0 0.0 0.00 0.00 0.00 77 976.8
20260902140948 0 139 1.0 1.0 0.00 0.00 0.00 76 977.1
20260902140448 0 139 1.0 1.0 0.00 0.00 0.00 77 976.9
20260902135947 0 139 0.0 0.0 0.00 0.00 0.00 80 977.1
20260902135447 0 139 1.0 1.0 0.00 0.00 0.00 80 976.9
20260902134947 0 136 0.0 0.0 0.00 0.00 0.00 83 977.0
20260902134446 0 145 1.0 1.0 0.00 0.00 0.00 86 977.0
20260902133946 0 145 0.0 0.0 0.00 0.00 0.00 85 977.0
20260902133445 0 145 1.0 1.0 0.00 0.00 0.00 86 977.3
20260902132945 0 145 0.0 0.0 0.00 0.00 0.00 86 976.8
20260902132445 0 145 1.0 1.0 0.00 0.00 0.00 88 977.3
20260902131945 0 144 2.0 1.0 0.00 0.00 0.00 87 977.4
20260902131444 0 145 0.0 0.0 0.00 0.00 0.00 87 977.2
20260902130944 0 145 1.0 1.0 0.00 0.00 0.00 88 977.1
20260902130444 0 145 1.0 1.0 0.00 0.00 0.00 87 976.9
20260902125943 0 145 0.0 0.0 0.00 0.00 0.00 88 976.9
20260902125443 0 144 0.0 0.0 0.00 0.00 0.00 88 976.9
20260902124943 0 145 0.0 0.0 0.00 0.00 0.00 88 977.0
20260902124442 0 145 0.0 0.0 0.00 0.00 0.00 89 977.0
20260902123942 0 145 0.0 0.0 0.00 0.00 0.00 89 976.9
20260902123442 0 145 1.0 1.0 0.00 0.00 0.00 89 976.8
20260902122941 0 145 0.0 0.0 0.00 0.00 0.00 89 977.0
20260902122441 0 123 0.0 0.0 0.00 0.00 0.00 88 977.0
20260902121941 0 123 0.0 0.0 0.00 0.00 0.00 89 977.2
20260902121440 0 123 1.0 1.0 0.00 0.00 0.00 88 977.6
20260902120940 0 126 1.0 1.0 0.00 0.00 0.00 88 977.6
20260902120440 0 126 0.0 0.0 0.00 0.00 0.00 88 977.7
20260902115939 0 126 1.0 1.0 0.00 0.00 0.00 88 977.7
20260902115439 0 126 1.0 1.0 0.00 0.00 0.00 86 977.3
20260902114939 0 126 0.0 0.0 0.00 0.00 0.00 86 977.4
20260902114438 0 126 1.0 1.0 0.00 0.00 0.00 85 977.3
20260902113938 0 126 0.0 0.0 0.00 0.00 0.00 86 977.3
20260902113438 0 126 0.0 0.0 0.00 0.00 0.00 85 977.2
20260902112937 0 126 0.0 0.0 0.00 0.00 0.00 85 976.9
20260902112437 0 126 0.0 0.0 0.00 0.00 0.00 84 976.9
20260902111937 0 126 0.0 0.0 0.00 0.00 0.00 85 976.8
20260902111436 0 126 0.0 0.0 0.00 0.00 0.00 85 976.8
20260902110936 0 126 1.0 0.0 0.00 0.00 0.00 83 976.6
20260902110436 0 125 0.0 0.0 0.00 0.00 0.00 82 976.5
20260902105935 0 110 0.0 0.0 0.00 0.00 0.00 82 976.6
20260902105435 0 76 0.0 0.0 0.00 0.00 0.00 81 976.5
20260902104935 0 39 1.0 1.0 0.00 0.00 0.00 81 976.4
20260902104434 0 36 0.0 0.0 0.00 0.00 0.00 81 976.1
20260902103934 0 36 0.0 0.0 0.00 0.00 0.00 80 976.3
20260902103434 0 36 0.0 0.0 0.00 0.00 0.00 80 976.2
20260902102933 0 347 0.0 0.0 0.00 0.00 0.00 79 976.4
20260902102433 0 347 1.0 1.0 0.00 0.00 0.00 80 976.4
20260902101933 0 347 0.0 0.0 0.00 0.00 0.00 80 976.4
20260902101432 0 347 0.0 0.0 0.00 0.00 0.00 80 976.6
20260902100932 0 347 0.0 0.0 0.00 0.00 0.00 80 976.6
20260902100432 0 347 0.0 0.0 0.00 0.00 0.00 81 976.5
20260902095931 0 347 1.0 1.0 0.00 0.00 0.00 82 976.6
20260902095431 0 347 0.0 0.0 0.00 0.00 0.00 82 976.5
20260902094931 0 347 1.0 1.0 0.00 0.00 0.00 82 976.7
20260902094430 0 347 1.0 1.0 0.00 0.00 0.00 81 976.6
20260902093930 0 347 1.0 1.0 0.00 0.00 0.00 81 976.8
20260902093430 0 347 1.0 1.0 0.00 0.00 0.00 80 976.8
20260902092930 0 347 1.0 1.0 0.00 0.00 0.00 80 976.8
20260902092429 0 344 2.0 2.0 0.00 0.00 0.00 80 977.2
20260902091929 0 344 1.0 2.0 0.00 0.00 0.00 80 977.1
20260902091428 0 343 2.0 2.0 0.00 0.00 0.00 79 977.4
20260902090928 0 340 2.0 3.0 0.00 0.00 0.00 79 977.5
20260902090428 0 338 2.0 2.0 0.00 0.00 0.00 78 977.4
20260902085927 0 339 1.0 1.0 0.00 0.00 0.00 79 977.5
20260902085427 0 341 3.0 3.0 0.00 0.00 0.00 81 977.4
20260902084927 0 329 8.0 10.0 0.00 0.00 0.00 87 977.7
20260902084426 0 170 0.0 0.0 0.00 0.00 0.00 88 975.9
20260902083926 0 170 2.0 2.0 0.00 0.00 0.00 87 975.5
20260902083426 0 170 1.0 1.0 0.00 0.00 0.00 87 975.6
20260902082925 0 170 1.0 1.0 0.00 0.00 0.00 88 975.8
20260902082425 0 170 0.0 0.0 0.00 0.00 0.00 89 975.7
20260902081925 0 170 0.0 0.0 0.00 0.00 0.00 87 975.6
20260902081424 0 170 0.0 0.0 0.00 0.00 0.00 88 975.9
20260902080924 0 170 0.0 0.0 0.00 0.00 0.00 86 975.8
20260902080424 0 170 1.0 1.0 0.00 0.00 0.00 87 975.7
20260902075924 0 170 1.0 1.0 0.00 0.00 0.00 88 975.7
20260902075423 0 170 1.0 1.0 0.00 0.00 0.00 87 975.6
20260902074923 0 169 1.0 1.0 0.00 0.00 0.00 87 975.7
20260902074423 0 170 1.0 1.0 0.00 0.00 0.00 89 975.6
20260902073922 0 170 1.0 1.0 0.00 0.00 0.00 89 975.6
20260902073422 0 169 1.0 1.0 0.00 0.00 0.00 90 975.7
20260902072922 0 199 1.0 0.0 0.00 0.00 0.00 90 975.8
20260902072422 0 199 0.0 0.0 0.00 0.00 0.00 93 976.0
20260902071921 0 199 0.0 0.0 0.00 0.00 0.00 94 975.8
20260902071421 0 199 0.0 0.0 0.00 0.00 0.00 94 975.8
20260902070920 0 199 0.0 0.0 0.00 0.00 0.00 95 975.8
20260902070420 0 199 0.0 0.0 0.00 0.00 0.00 95 975.9
20260902065920 0 199 2.0 2.0 0.00 0.00 0.00 95 975.8
20260902065420 0 199 0.0 0.0 0.00 0.00 0.00 95 975.7
20260902064921 0 199 1.0 0.0 0.00 0.00 0.00 95 975.6
20260902064419 0 199 0.0 0.0 0.00 0.00 0.00 95 975.8
20260902063919 0 200 2.0 2.0 0.00 0.00 0.00 95 975.7
20260902063418 0 199 2.0 1.0 0.00 0.00 0.00 95 976.0
20260902062918 0 199 1.0 1.0 0.00 0.00 0.00 94 975.7
20260902062418 0 199 0.0 0.0 0.00 0.00 0.00 94 975.8
20260902061917 0 199 1.0 1.0 0.00 0.00 0.00 93 976.1
20260902061417 0 199 1.0 1.0 0.00 0.00 0.00 92 976.0
20260902060917 0 199 0.0 0.0 0.00 0.00 0.00 92 976.0
20260902060416 0 199 1.0 1.0 0.00 0.00 0.00 92 975.8
20260902055916 0 199 1.0 1.0 0.00 0.00 0.00 93 976.1
20260902055416 0 199 1.0 1.0 0.00 0.00 0.00 93 976.2
20260902054916 0 199 1.0 1.0 0.00 0.00 0.00 93 976.0
20260902054415 0 199 1.0 1.0 0.00 0.00 0.00 93 976.0
20260902053915 0 199 0.0 0.0 0.00 0.00 0.00 94 976.1
20260902053415 0 199 0.0 1.0 0.00 0.00 0.00 94 975.9
20260902052914 0 199 0.0 0.0 0.00 0.00 0.00 94 976.2
20260902052414 0 199 0.0 0.0 0.00 0.00 0.00 95 976.1
20260902051914 0 199 0.0 0.0 0.00 0.00 0.00 95 976.1
20260902051413 0 199 1.0 1.0 0.00 0.00 0.00 95 976.1
20260902050913 0 199 1.0 1.0 0.00 0.00 0.00 94 976.1
20260902050413 0 200 2.0 1.0 0.00 0.00 0.00 94 976.1
20260902045912 0 199 0.0 1.0 0.00 0.00 0.00 94 976.1
20260902045412 0 199 0.0 0.0 0.00 0.00 0.00 94 975.6
20260902044912 0 199 0.0 0.0 0.00 0.00 0.00 94 975.6
20260902044411 0 199 0.0 0.0 0.00 0.00 0.00 94 975.8
20260902043911 0 199 0.0 0.0 0.00 0.00 0.00 93 975.8
20260902043411 0 199 1.0 1.0 0.00 0.00 0.00 93 975.7
20260902042910 0 199 1.0 1.0 0.00 0.00 0.00 93 975.7
20260902042410 0 199 1.0 1.0 0.00 0.00 0.00 93 975.6
20260902041910 0 199 0.0 0.0 0.00 0.00 0.00 92 975.8
20260902041409 0 199 1.0 1.0 0.00 0.00 0.00 91 976.0
20260902040911 0 199 0.0 0.0 0.00 0.00 0.00 90 975.9
20260902040409 0 199 0.0 0.0 0.00 0.00 0.00 90 976.2
20260902035909 0 199 0.0 0.0 0.00 0.00 0.00 89 976.2
20260902035408 0 199 0.0 0.0 0.00 0.00 0.00 90 976.2
20260902034908 0 199 0.0 0.0 0.00 0.00 0.00 90 976.3
20260902034407 0 199 0.0 0.0 0.00 0.00 0.00 89 976.3
20260902033907 0 199 0.0 0.0 0.00 0.00 0.00 88 976.4
20260902033407 0 199 0.0 0.0 0.00 0.00 0.00 88 976.4
20260902032907 0 199 0.0 0.0 0.00 0.00 0.00 89 976.4
20260902032406 0 199 1.0 1.0 0.00 0.00 0.00 91 976.5
20260902031906 0 199 0.0 0.0 0.00 0.00 0.00 91 976.4
20260902031405 0 199 0.0 0.0 0.00 0.00 0.00 91 976.5
20260902030905 0 199 1.0 1.0 0.00 0.00 0.00 90 976.5
20260902030405 0 199 1.0 1.0 0.00 0.00 0.00 90 976.4
20260902025904 0 199 0.0 0.0 0.00 0.00 0.00 90 976.5
20260902025404 0 199 1.0 1.0 0.00 0.00 0.00 90 976.5
20260902024904 0 199 1.0 1.0 0.00 0.00 0.00 90 976.5
20260902024403 0 199 2.0 2.0 0.00 0.00 0.00 90 976.4
20260902023903 0 199 2.0 2.0 0.00 0.00 0.00 90 976.4
20260902023403 0 199 2.0 2.0 0.00 0.00 0.00 90 976.3
20260902022902 0 199 2.0 2.0 0.00 0.00 0.00 89 976.2
20260902022402 0 198 1.0 1.0 0.00 0.00 0.00 87 976.1
20260902021902 0 198 0.0 0.0 0.00 0.00 0.00 85 976.0
20260902021401 0 198 0.0 0.0 0.00 0.00 0.00 86 976.1
20260902020901 0 198 1.0 1.0 0.00 0.00 0.00 86 975.7
20260902020401 0 198 0.0 0.0 0.00 0.00 0.00 86 975.9
20260902015900 0 198 1.0 1.0 0.00 0.00 0.00 87 975.8
20260902015400 0 198 1.0 1.0 0.00 0.00 0.00 88 975.9
20260902014900 0 198 0.0 0.0 0.00 0.00 0.00 88 975.7
20260902014359 0 198 1.0 1.0 0.00 0.00 0.00 88 975.7
20260902013859 0 198 0.0 0.0 0.00 0.00 0.00 89 975.6
20260902013359 0 198 0.0 0.0 0.00 0.00 0.00 88 975.7
20260902012859 0 198 1.0 1.0 0.00 0.00 0.00 88 975.6
20260902012358 0 198 0.0 0.0 0.00 0.00 0.00 87 975.5
20260902011858 0 198 1.0 1.0 0.00 0.00 0.00 85 975.5
20260902011358 0 198 1.0 1.0 0.00 0.00 0.00 84 975.4
20260902010857 0 198 0.0 0.0 0.00 0.00 0.00 83 975.4
20260902010357 0 198 0.0 0.0 0.00 0.00 0.00 82 975.5
20260902005856 0 198 0.0 0.0 0.00 0.00 0.00 80 975.7
20260902005356 0 198 0.0 0.0 0.00 0.00 0.00 78 975.5
20260902004856 0 198 0.0 0.0 0.00 0.00 0.00 79 975.8
20260902004356 0 198 0.0 0.0 0.00 0.00 0.00 78 975.9
20260902003855 0 198 0.0 0.0 0.00 0.00 0.00 79 976.0
20260902003355 0 198 0.0 0.0 0.00 0.00 0.00 79 976.2
20260902002855 0 199 1.0 1.0 0.00 0.00 0.00 79 976.2
20260902002354 0 199 2.0 1.0 0.00 0.00 0.00 79 976.2
20260902001854 0 199 2.0 2.0 0.00 0.00 0.00 80 976.2
20260902001354 0 199 1.0 1.0 0.00 0.00 0.00 80 976.3
20260902000853 0 199 1.0 1.0 0.00 0.00 0.00 80 976.4
20260902000353 0 198 1.0 1.0 0.00 0.00 0.00 80 976.6
20260901235852 0 198 1.0 1.0 0.00 0.00 0.00 79 976.7
20260901235352 0 198 0.0 0.0 0.00 0.00 0.00 78 976.5
20260901234852 0 198 0.0 0.0 0.00 0.00 0.00 77 976.4
20260901234351 0 198 0.0 0.0 0.00 0.00 0.00 77 976.2
20260901233851 0 198 0.0 0.0 0.00 0.00 0.00 76 976.2
20260901233351 0 198 1.0 1.0 0.00 0.00 0.00 75 976.3
20260901232851 0 198 0.0 0.0 0.00 0.00 0.00 77 976.1
20260901232350 0 198 1.0 1.0 0.00 0.00 0.00 75 976.1
20260901231850 0 198 1.0 1.0 0.00 0.00 0.00 75 976.1
20260901231350 0 198 1.0 1.0 0.00 0.00 0.00 73 975.9
20260901230849 0 198 1.0 1.0 0.00 0.00 0.00 73 976.0
20260901230349 0 199 1.0 1.0 0.00 0.00 0.00 73 976.0
20260901225849 0 199 1.0 1.0 0.00 0.00 0.00 73 976.0
20260901225348 0 199 0.0 0.0 0.00 0.00 0.00 70 976.1
20260901224848 0 199 1.0 1.0 0.00 0.00 0.00 69 976.3
20260901224347 0 199 1.0 1.0 0.00 0.00 0.00 71 976.1
20260901223847 0 199 1.0 1.0 0.00 0.00 0.00 71 976.0
20260901223347 0 199 1.0 0.0 0.00 0.00 0.00 68 976.2
20260901222847 0 199 1.0 1.0 0.00 0.00 0.00 68 976.0
20260901222346 0 199 0.0 0.0 0.00 0.00 0.00 68 976.1
20260901221846 0 199 1.0 1.0 0.00 0.00 0.00 67 976.2
20260901221346 0 199 1.0 1.0 0.00 0.00 0.00 70 976.0
20260901220845 0 199 0.0 0.0 0.00 0.00 0.00 68 976.0
20260901220345 0 199 2.0 2.0 0.00 0.00 0.00 67 976.2
20260901215845 0 199 0.0 0.0 0.00 0.00 0.00 70 976.2
20260901215344 0 199 0.0 0.0 0.00 0.00 0.00 68 976.1
20260901214844 0 199 1.0 1.0 0.00 0.00 0.00 68 976.1
20260901214344 0 199 1.0 1.0 0.00 0.00 0.00 69 976.1
20260901213844 0 199 1.0 1.0 0.00 0.00 0.00 71 975.9
20260901213343 0 197 1.0 1.0 0.00 0.00 0.00 75 975.8
20260901212843 0 196 1.0 1.0 0.00 0.00 0.00 77 976.0
20260901212343 0 196 0.0 0.0 0.00 0.00 0.00 77 975.5
20260901211842 0 196 1.0 1.0 0.00 0.00 0.00 77 975.8
20260901211342 0 196 0.0 0.0 0.00 0.00 0.00 78 975.8
20260901210841 0 196 0.0 0.0 0.00 0.00 0.00 79 975.4
20260901210341 0 196 1.0 1.0 0.00 0.00 0.00 77 975.5
20260901205841 0 196 1.0 1.0 0.00 0.00 0.00 75 975.4
20260901205340 0 204 1.0 1.0 0.00 0.00 0.00 74 975.8
20260901204840 0 204 1.0 1.0 0.00 0.00 0.00 74 976.8
20260901204340 0 203 2.0 2.0 0.00 0.00 0.00 73 977.1
20260901203839 0 202 1.0 2.0 0.00 0.00 0.00 75 977.1
20260901203339 0 202 0.0 0.0 0.00 0.00 0.00 74 977.1
20260901202838 0 202 2.0 2.0 0.00 0.00 0.00 71 976.7
20260901202337 0 202 1.0 1.0 0.00 0.00 0.00 72 976.8
20260901201837 0 202 1.0 1.0 0.00 0.00 0.00 73 976.7
20260901201337 0 202 0.0 0.0 0.00 0.00 0.00 71 976.7